Weather History for Venice, Italy

Change the Weather History Date:

Wednesday, April 23, 2014

  Actual Average Record
Temperature  
Mean Temperature 62 °F -  
Max Temperature 74 °F 68 °F 75 °F (2007)
Min Temperature 51 °F 52 °F 42 °F (1997)
Degree Days  
Heating Degree Days 2    
Growing Degree Days 12 (Base 50)    
Moisture  
Dew Point 53 °F    
Average Humidity 75    
Maximum Humidity 100    
Minimum Humidity 34    
Precipitation  
Precipitation 0.01 in 0.09 in - ()
Sea Level Pressure  
Sea Level Pressure 29.99 in    
Wind  
Wind Speed 3 mph ()    
Max Wind Speed 9 mph    
Max Gust Speed -    
Visibility 4.8 miles    
Events Fog    
Averages and records for this station are not official NWS values.
T = Trace of Precipitation, MM = Missing Value Source: Averaged Metar Reports

Daily Weather History Graph

Daily Weather History Graph

Search for Another Location

Airport:

Trip Planner

Search our weather history database for the weather conditions in past years. The results will help you decide how hot, cold, wet, or windy it might be!

Date:

Astronomy

Apr. 23, 2014 Rise Set
Actual Time 6:11 AM CEST 8:06 PM CEST
Civil Twilight 5:40 AM CEST 8:38 PM CEST
Nautical Twilight 5:01 AM CEST 9:17 PM CEST
Astronomical Twilight 4:18 AM CEST 10:00 PM CEST
Moon 2:50 AM CEST (4/23) 1:38 PM CEST (4/23)
Length of Visible Light 14h 58m
Length of Day
13h 55m
Last Quarter, 38% of the Moon is Illuminated
Apr 23
Last Quarter
Apr 29
New
May 7
First Quarter
May 14
Full
May 21
Last Quarter

Hourly Weather History & Observations

Time (CEST) Temp. Dew Point Humidity Pressure Visibility Wind Dir Wind Speed Gust Speed Precip Events Conditions
12:20 AM 57.2 °F 53.6 °F 88% 30.01 in 6.2 mi Variable 2.3 mph - N/A   Partly Cloudy
12:50 AM 57.2 °F 55.4 °F 94% 30.01 in 5.6 mi Variable 2.3 mph - N/A Fog Fog
1:20 AM 57.2 °F 55.4 °F 94% 30.01 in 5.6 mi NNE 5.8 mph - N/A Fog Fog
1:50 AM 55.4 °F 53.6 °F 94% 30.01 in 5.6 mi NE 5.8 mph - N/A Fog Fog
2:00 AM 56 °F 53 °F 87% 30.02 in 6 mi NE 4.6 mph - -  
3:20 AM 53.6 °F 51.8 °F 94% 30.01 in 3.1 mi Variable 1.2 mph - N/A Fog Fog
3:50 AM 51.8 °F 48.2 °F 88% 30.01 in 3.1 mi Calm Calm - N/A Fog Fog
4:20 AM 51.8 °F 51.8 °F 100% 30.01 in 0.2 mi Calm Calm - N/A Fog Fog
4:50 AM 53.6 °F 53.6 °F 100% 30.01 in 0.2 mi Variable 3.5 mph - N/A Fog Fog
5:00 AM 53 °F 53 °F 99% 30.02 in 0 mi North 4.6 mph - - Fog Partial Fog
5:20 AM 51.8 °F 51.8 °F 100% 30.01 in 0.2 mi North 4.6 mph - N/A Fog Fog
5:50 AM 51.8 °F 51.8 °F 100% 30.01 in 0.2 mi Variable 3.5 mph - N/A Fog Fog
6:20 AM 53.6 °F 53.6 °F 100% 29.98 in 0.2 mi North 4.6 mph - N/A Fog Fog
6:50 AM 53.6 °F 51.8 °F 94% 30.01 in 0.2 mi Variable 2.3 mph - N/A Fog Fog
7:20 AM 53.6 °F 51.8 °F 94% 30.01 in 0.2 mi Calm Calm - N/A Fog Fog
7:50 AM 53.6 °F 51.8 °F 94% 30.01 in 0.2 mi Variable 2.3 mph - N/A Fog Fog
8:00 AM 53 °F 52 °F 97% 30.01 in 0 mi North 3.5 mph - - Fog Partial Fog
8:20 AM 53.6 °F 53.6 °F 100% 30.01 in 0.1 mi Calm Calm - N/A Fog Fog
8:50 AM 53.6 °F 53.6 °F 100% 30.01 in 0.1 mi Calm Calm - N/A Fog Fog
9:20 AM 53.6 °F 53.6 °F 100% 30.01 in 0.2 mi Variable 1.2 mph - N/A Fog Fog
9:50 AM 55.4 °F 55.4 °F 100% 30.01 in 0.2 mi Calm Calm - N/A Fog Fog
10:20 AM 55.4 °F 55.4 °F 100% 30.04 in 0.5 mi Variable 2.3 mph - N/A Fog Fog
10:50 AM 57.2 °F 57.2 °F 100% 30.04 in 1.2 mi Variable 2.3 mph - N/A Fog Fog
11:00 AM 57 °F 57 °F 99% 30.04 in 1 mi NNW 2.3 mph - - Fog Partial Fog
11:20 AM 59.0 °F 59.0 °F 100% 30.04 in 2.5 mi Variable 3.5 mph - N/A   Mist
11:50 AM 62.6 °F 60.8 °F 94% 30.01 in 4.3 mi NW 4.6 mph - N/A   Unknown
12:20 PM 66.2 °F 57.2 °F 73% 30.01 in 5.6 mi Calm Calm - N/A   Unknown
12:50 PM 68.0 °F 57.2 °F 68% 30.01 in - Variable 3.5 mph - N/A   Clear
1:20 PM 69.8 °F 55.4 °F 60% 30.01 in 6.2 mi Variable 3.5 mph - N/A   Partly Cloudy
1:50 PM 69.8 °F 53.6 °F 56% 29.98 in 6.2 mi Variable 3.5 mph - N/A   Partly Cloudy
2:00 PM 70 °F 54 °F 46% 30.01 in 11 mi ENE 3.5 mph - -   Scattered Clouds
2:20 PM 71.6 °F 53.6 °F 53% 29.98 in 6.2 mi ESE 4.6 mph - N/A   Partly Cloudy
2:50 PM 71.6 °F 53.6 °F 53% 29.98 in 6.2 mi East 8.1 mph - N/A   Partly Cloudy
3:20 PM 71.6 °F 50.0 °F 46% 29.95 in 6.2 mi East 8.1 mph - N/A   Partly Cloudy
3:50 PM 71.6 °F 51.8 °F 50% 29.95 in 6.2 mi ESE 5.8 mph - N/A   Partly Cloudy
4:20 PM 73.4 °F 50.0 °F 44% 29.95 in 6.2 mi East 9.2 mph - N/A   Partly Cloudy
4:50 PM 73.4 °F 48.2 °F 41% 29.95 in 6.2 mi East 9.2 mph - N/A   Partly Cloudy
5:00 PM 72 °F 49 °F 34% 29.95 in 19 mi East 8.1 mph - -   Scattered Clouds
5:20 PM 71.6 °F 44.6 °F 38% 29.92 in 6.2 mi ESE 5.8 mph - N/A   Partly Cloudy
5:50 PM 69.8 °F 51.8 °F 53% 29.92 in 6.2 mi Variable 2.3 mph - N/A   Partly Cloudy
6:20 PM 69.8 °F 53.6 °F 56% 29.92 in 6.2 mi Variable 2.3 mph - N/A   Partly Cloudy
6:50 PM 71.6 °F 51.8 °F 50% 29.92 in 6.2 mi Variable 2.3 mph - N/A   Partly Cloudy
7:20 PM 71.6 °F 51.8 °F 50% 29.92 in - Variable 1.2 mph - N/A   Clear
7:50 PM 69.8 °F 53.6 °F 56% 29.95 in - Variable 3.5 mph - N/A   Clear
8:00 PM 69 °F 51 °F 43% 29.95 in 19 mi SSW 3.5 mph - -   Scattered Clouds
8:20 PM 68.0 °F 53.6 °F 60% 29.95 in - Variable 2.3 mph - N/A   Clear
8:50 PM 66.2 °F 53.6 °F 64% 29.95 in 6.2 mi Calm Calm - N/A   Partly Cloudy
9:20 PM 66.2 °F 51.8 °F 60% 29.95 in 6.2 mi Variable 2.3 mph - N/A   Partly Cloudy
9:50 PM 66.2 °F 51.8 °F 60% 29.95 in 6.2 mi Variable 2.3 mph - N/A   Partly Cloudy
10:20 PM 64.4 °F 53.6 °F 68% 29.98 in 6.2 mi Variable 2.3 mph - N/A   Scattered Clouds
10:50 PM 64.4 °F 51.8 °F 64% 29.98 in 6.2 mi Variable 2.3 mph - N/A   Scattered Clouds
11:00 PM 64 °F 51 °F 54% 29.97 in 19 mi North 3.5 mph - -   Partly Cloudy
11:20 PM 64.4 °F 51.8 °F 64% 29.95 in 6.2 mi NNE 5.8 mph - N/A   Scattered Clouds
11:50 PM 66.2 °F 50.0 °F 56% 29.98 in 6.2 mi NNE 5.8 mph - N/A   Partly Cloudy